ONEWEB-0217, 48245

Orbit data source: Space-Track

ONEWEB-0217, 48245 is a payload satellite owned by One Web (NAA) (UK) in LEO that was launched on Sun, 25 Apr 2021 UTC via a SOYUZ-2-1B launch vehicle from the Vostochny Cosmodrome (VOSTO). Payload-class satellites include a variety of spacecraft equipped with specific instruments for various scientific and technological missions. These include communications satellites like Starlink; space stations such as the ISS; scientific satellites like the Hubble; Earth observation satellites from companies like Planet Labs, Umbra, and HawkEye 360; GPS; miniature CubeSats for education and research; and military/defense satellites.

Loading next visibility...
Identifier
48245, 2021-031AM
Orbit
LEO
Country
Flag of UKUK
Related business
Manufacturer
One Web
Mission
Operational Commercial Communications
Bus & Motor
ARROW, Unknown motor
Mass
148 kg wet, ~140 kg dry
Launch date (UTC)
2021-04-25 (5 years ago)
Launch vehicle
SOYUZ-2-1B
Launch site
Vostochny Cosmodrome (VOSTO)
Object type
Payload
Rocket body
Debris
Shape & HBR
Trap Box + 2 Pan, 6.7 m
Radar Cross Section
3.464 m², Large (>1 m²)

Expand to show TLE details & history
Last TLE update: 2 days ago

TLE from 2 days ago
0 ONEWEB-0217
1 48245U 21031AM  26171.33628112  .00000005  00000-0 -22122-4 0  9992
2 48245  87.8975 289.0691 0002008 111.4582 248.6762 13.14501684248592
Epoch: 2026-06-20T08:04Z
TLE epoch observation values (Epoch: 2026-06-20T08:04:14.688Z)
Latitude
-0.00004°
Longitude
-100.54447°
Altitude
1,209.243 km
Speed
7.249 km/s
True Right ascension
19h 16m 16s
True Declination
0° 00' 00"
Sunlit
Object was in full shadow at epoch
Visualization orbit readout
Latitude
Unknown
Longitude
Unknown
Altitude
Unknown
Speed
Unknown
Apparent Right ascension
Unknown
Apparent Declination
Unknown
Sunlit
N/A
Visualization observer readout
Local Sidereal Time
21:39:14
Azimuth
Unknown
Elevation
Unknown
Doppler factor
Unknown
Orbital elements
Apogee altitude
1,204.431 km
Perigee altitude
1,201.386 km
Semi-major axis
7,581.045 km
Eccentricity
0.0002
Inclination
87.8975°
RAAN
289.0691°
Arg. of periapsis
111.4582°
True anomaly
248.65477°
Mean anomaly
248.6762°
Eccentric anomaly
248.66548°
Mean motion
3.28813 °/min
Orbital period
109.48 mins
BSTAR
-0.000022122
Loading maneuver chart data...
Computing Atmospheric mass density...
Loading historical data...
Loading historical data...
Loading historical data...
Loading historical data...
Loading historical data...
Loading historical data...
Loading historical data...

Documentation

Showing up to 5 results
|